Date String (YYYY-MM-DD hh:mm:ss) UTC,Instrument flags,Ambient pressure (hPa),Sample flow (lpm),Bypass flow (lpm),Sample temperature (°C),Ambient temperature (°C),ASC tube jacket temperature (°C),LED temperature (°C),Box temperature (°C),Sample RH (%),Span deviation,Mass concentration (μg/m³),Mass concentration (μg/m³),Mass concentration (μg/m³)
DateTimeUTC,F1_M11,P_M11,Q1_M11,Q2_M11,T1_M11,T2_M11,T3_M11,T4_M11,T5_M11,U1_M11,ZSPAN_M11,X0_M11,X2_M11,X1_M11
2022-10-18 20:00:00,,0832.7,5.01,0.00,30.6,29.6,00.0,39.3,32.4,10.4,0000.0,0007.40,0003.55,0002.92
2022-10-18 20:01:00,,0832.7,4.99,0.00,30.6,29.6,00.0,39.3,32.4,10.9,0000.0,0007.92,0003.56,0002.93
2022-10-18 20:02:00,,0832.7,5.00,0.00,30.6,28.6,00.0,39.3,32.4,11.1,0000.0,0007.84,0003.60,0002.97
2022-10-18 20:03:00,,0832.6,5.02,0.00,30.6,27.3,00.0,39.3,32.3,11.0,0000.0,0008.07,0003.60,0002.99
2022-10-18 20:04:00,,0832.6,5.00,0.00,30.5,27.1,00.0,39.2,32.2,11.1,0000.0,0008.79,0003.60,0003.02
2022-10-18 20:05:00,,0832.6,5.01,0.00,30.4,27.3,00.0,39.2,32.0,11.1,0000.0,0008.75,0003.63,0003.06
2022-10-18 20:06:00,,0832.6,4.99,0.00,30.4,27.6,00.0,39.2,32.0,11.2,0000.0,0008.76,0003.66,0003.10
2022-10-18 20:07:00,,0832.6,5.01,0.00,30.3,27.9,00.0,39.1,32.0,11.2,0000.0,0009.03,0003.71,0003.12
2022-10-18 20:08:00,,0832.6,4.99,0.00,30.3,28.2,00.0,39.1,32.0,11.0,0000.0,0009.23,0003.73,0003.13
2022-10-18 20:09:00,,0832.6,5.00,0.00,30.3,28.4,00.0,39.1,32.0,11.0,0000.0,0009.39,0003.79,0003.16
2022-10-18 20:10:00,,0832.6,5.00,0.00,30.2,28.5,00.0,39.1,32.0,10.9,0000.0,0009.59,0003.86,0003.18
2022-10-18 20:11:00,,0832.6,5.01,0.00,30.2,28.6,00.0,39.1,32.0,10.8,0000.0,0010.16,0003.90,0003.19
2022-10-18 20:12:00,,0832.7,4.99,0.00,30.2,28.7,00.0,39.1,32.0,10.8,0000.0,0009.60,0003.92,0003.20
2022-10-18 20:13:00,,0832.6,5.01,0.00,30.2,28.9,00.0,39.1,32.0,10.8,0000.0,0009.67,0003.93,0003.19
2022-10-18 20:14:00,,0832.6,4.98,0.00,30.2,28.9,00.0,39.1,32.0,10.8,0000.0,0009.80,0003.94,0003.19
2022-10-18 20:15:00,,0832.6,5.02,0.00,30.3,29.0,00.0,39.1,32.0,10.9,0000.0,0010.39,0003.95,0003.19
2022-10-18 20:16:00,,0832.6,4.99,0.00,30.3,29.1,00.0,39.1,32.1,11.0,0000.0,0010.76,0003.96,0003.18
2022-10-18 20:17:00,,0832.6,5.01,0.00,30.3,29.1,00.0,39.1,32.1,11.0,0000.0,0011.40,0003.93,0003.17
2022-10-18 20:18:00,,0832.5,4.99,0.00,30.3,29.2,00.0,39.1,32.1,10.9,0000.0,0011.59,0003.90,0003.17
2022-10-18 20:19:00,,0832.5,5.02,0.00,30.3,29.2,00.0,39.1,32.1,10.8,0000.0,0011.77,0003.91,0003.17
2022-10-18 20:20:00,,0832.5,4.98,0.00,30.3,29.2,00.0,39.1,32.1,10.9,0000.0,0012.48,0003.88,0003.15
2022-10-18 20:21:00,,0832.5,5.00,0.00,30.4,29.3,00.0,39.1,32.2,10.8,0000.0,0012.88,0003.84,0003.13
2022-10-18 20:22:00,,0832.5,5.02,0.00,30.4,29.3,00.0,39.1,32.2,10.9,0000.0,0012.20,0003.79,0003.13
2022-10-18 20:23:00,,0832.5,4.98,0.00,30.4,29.4,00.0,39.1,32.2,10.7,0000.0,0012.04,0003.75,0003.12
2022-10-18 20:24:00,,0832.5,5.02,0.00,30.4,29.4,00.0,39.2,32.2,10.7,0000.0,0012.12,0003.76,0003.11
2022-10-18 20:25:00,,0832.5,5.00,0.00,30.4,29.4,00.0,39.2,32.3,10.7,0000.0,0012.00,0003.76,0003.10
2022-10-18 20:26:00,,0832.6,5.00,0.00,30.5,29.5,00.0,39.2,32.3,10.7,0000.0,0010.95,0003.73,0003.09
2022-10-18 20:27:00,,0832.5,4.99,0.00,30.5,29.4,00.0,39.2,32.3,10.6,0000.0,0011.25,0003.71,0003.09
2022-10-18 20:28:00,,0832.5,5.00,0.00,30.5,28.5,00.0,39.2,32.3,10.6,0000.0,0011.12,0003.71,0003.08
2022-10-18 20:29:00,,0832.5,5.00,0.00,30.4,26.9,00.0,39.1,32.1,10.8,0000.0,0011.39,0003.73,0003.08
2022-10-18 20:30:00,,0832.5,5.01,0.00,30.4,26.7,00.0,39.1,32.0,10.9,0000.0,0011.71,0003.75,0003.09
2022-10-18 20:31:00,,0832.5,4.99,0.00,30.3,26.9,00.0,39.0,31.8,10.8,0000.0,0011.66,0003.77,0003.13
2022-10-18 20:32:00,,0832.5,5.00,0.00,30.2,27.2,00.0,39.0,31.8,10.8,0000.0,0012.19,0003.76,0003.14
2022-10-18 20:33:00,,0832.5,5.00,0.00,30.1,27.6,00.0,39.0,31.8,10.8,0000.0,0012.31,0003.78,0003.15
2022-10-18 20:34:00,,0832.5,5.00,0.00,30.1,27.9,00.0,39.0,31.7,10.9,0000.0,0012.28,0003.79,0003.16
2022-10-18 20:35:00,,0832.4,5.01,0.00,30.1,28.1,00.0,39.0,31.8,10.8,0000.0,0013.26,0003.80,0003.17
2022-10-18 20:36:00,,0832.5,5.01,0.00,30.1,28.3,00.0,38.9,31.8,10.8,0000.0,0014.33,0003.81,0003.19
2022-10-18 20:37:00,,0832.5,4.98,0.00,30.1,28.5,00.0,38.9,31.9,10.9,0000.0,0014.13,0003.86,0003.21
2022-10-18 20:38:00,,0832.4,5.02,0.00,30.1,28.6,00.0,38.9,31.9,10.9,0000.0,0013.63,0003.89,0003.24
2022-10-18 20:39:00,,0832.4,4.99,0.00,30.1,28.7,00.0,38.9,31.9,10.9,0000.0,0013.00,0003.89,0003.27
2022-10-18 20:40:00,,0832.4,5.02,0.00,30.1,28.8,00.0,38.9,31.9,10.8,0000.0,0012.75,0003.90,0003.29
2022-10-18 20:41:00,,0832.5,4.98,0.00,30.1,28.9,00.0,38.9,32.0,10.8,0000.0,0012.49,0003.89,0003.28
2022-10-18 20:42:00,,0832.5,5.01,0.00,30.1,29.0,00.0,38.9,32.0,10.8,0000.0,0012.31,0003.89,0003.28
2022-10-18 20:43:00,,0832.5,4.99,0.00,30.2,29.0,00.0,38.9,32.0,10.8,0000.0,0011.13,0003.91,0003.29
2022-10-18 20:44:00,,0832.5,5.01,0.00,30.2,29.1,00.0,39.0,32.0,10.8,0000.0,0011.38,0003.93,0003.30
2022-10-18 20:45:00,,0832.5,4.98,0.00,30.2,29.1,00.0,39.0,32.0,10.8,0000.0,0011.71,0003.94,0003.31
2022-10-18 20:46:00,,0832.4,5.02,0.00,30.2,29.2,00.0,39.0,32.1,10.6,0000.0,0011.17,0003.93,0003.31
2022-10-18 20:47:00,,0832.4,4.99,0.00,30.2,29.2,00.0,39.0,32.1,10.7,0000.0,0010.12,0003.94,0003.31
2022-10-18 20:48:00,,0832.5,5.01,0.00,30.3,29.3,00.0,39.0,32.1,10.7,0000.0,0011.25,0003.95,0003.30
2022-10-18 20:49:00,,0832.4,5.00,0.00,30.3,29.3,00.0,39.0,32.1,10.7,0000.0,0012.02,0003.95,0003.29
2022-10-18 20:50:00,,0832.4,5.00,0.00,30.3,29.4,00.0,39.0,32.2,10.7,0000.0,0013.06,0003.97,0003.27
2022-10-18 20:51:00,,0832.4,5.01,0.00,30.4,28.9,00.0,39.0,32.2,10.7,0000.0,0012.73,0003.94,0003.26
2022-10-18 20:52:00,,0832.3,4.98,0.00,30.3,27.3,00.0,39.0,32.0,10.6,0000.0,0012.23,0003.93,0003.26
2022-10-18 20:53:00,,0832.3,4.99,0.00,30.2,26.4,00.0,38.9,31.9,10.7,0000.0,0011.99,0003.92,0003.26
2022-10-18 20:54:00,,0832.3,5.02,0.00,30.2,26.6,00.0,38.9,31.8,10.7,0000.0,0011.91,0003.92,0003.26
2022-10-18 20:55:00,,0832.4,4.99,0.00,30.1,26.9,00.0,38.9,31.6,10.9,0000.0,0011.54,0003.91,0003.25
2022-10-18 20:56:00,,0832.4,5.01,0.00,30.0,27.3,00.0,38.8,31.6,11.2,0000.0,0011.67,0003.97,0003.27
2022-10-18 20:57:00,,0832.3,5.01,0.00,30.0,27.6,00.0,38.8,31.6,11.1,0000.0,0011.80,0004.00,0003.29
2022-10-18 20:58:00,,0832.4,5.00,0.00,30.0,27.8,00.0,38.8,31.7,11.3,0000.0,0012.16,0004.05,0003.31
2022-10-18 20:59:00,,0832.4,5.00,0.00,29.9,28.1,00.0,38.8,31.7,11.2,0000.0,0011.24,0004.05,0003.32
